Terug naar catalogus

ARIANE 2 DEB

LostGTO
NORAD 33572·DEBRIS·🇫🇷 France

Gelanceerd Jan 27, 1989 vanaf Guiana Space Centre

Loading…

TLE

VerouderdSource: Space-Track

Epoch: Jun 8, 2022, 17:48 UTC

1 33572U 89006BQ  22159.74200144  .00000013  00000-0  00000+0 0  9997
2 33572   7.5179 301.2834 7003604  35.0893  49.1207  2.23228130132170

Volg ARIANE 2 DEB in realtime met AllMySat

Download on the App Store